,,,PA_Meas_PMT16A,,PR_Meas_QMR101_102,,RH_Meas_QMH101,,SR_Meas_QMS101,,TA_Meas_QMH101,,GenWind,,GenWind,
date,time,status,PA,status,PR,status,RH,status,SR,status,TA,status,DirAvg,status,SpdAvg,
2008-06-18, 00:00:04,VALID,1005.18,VALID,0,VALID,93.3775,VALID,0,VALID,24.192,VALID,2,VALID,0.355859,
2008-06-18, 00:01:04,VALID,1005.18,VALID,0,VALID,93.3851,VALID,0,VALID,24.192,VALID,2,VALID,0.373047,
2008-06-18, 00:02:04,VALID,1005.17,VALID,0,VALID,93.3699,VALID,0,VALID,24.1726,VALID,2,VALID,0.369531,
2008-06-18, 00:03:04,VALID,1005.18,VALID,0,VALID,93.3699,VALID,0,VALID,24.1726,VALID,2,VALID,0.241016,
2008-06-18, 00:04:04,VALID,1005.17,VALID,0,VALID,93.4156,VALID,0,VALID,24.1513,VALID,2,VALID,0.107422,
2008-06-18, 00:05:04,VALID,1005.17,VALID,0,VALID,93.4156,VALID,0,VALID,24.1336,VALID,2,VALID,0.278906,
2008-06-18, 00:06:04,VALID,1005.16,VALID,0,VALID,93.4462,VALID,0,VALID,24.1336,VALID,2,VALID,0.464453,
2008-06-18, 00:07:04,VALID,1005.15,VALID,0,VALID,93.4996,VALID,0,VALID,24.1142,VALID,2,VALID,0.311719,
2008-06-18, 00:08:05,VALID,1005.13,VALID,0,VALID,93.5377,VALID,0,VALID,24.0947,VALID,2,VALID,0.325,
2008-06-18, 00:09:05,VALID,1005.13,VALID,0,VALID,93.7513,VALID,0,VALID,24.0947,VALID,2,VALID,0.260156,
2008-06-18, 00:10:05,VALID,1005.1,VALID,0,VALID,93.8276,VALID,0,VALID,24.1142,VALID,2,VALID,0.200781,
2008-06-18, 00:11:05,VALID,1005.12,VALID,0,VALID,93.7437,VALID,0,VALID,24.1336,VALID,2,VALID,0.06875,
2008-06-18, 00:12:05,VALID,1005.15,VALID,0,VALID,93.6979,VALID,0,VALID,24.1336,VALID,2,VALID,0.385547,
2008-06-18, 00:13:05,VALID,1005.11,VALID,0,VALID,93.675,VALID,0,VALID,24.1336,VALID,2,VALID,0.246484,
2008-06-18, 00:14:05,VALID,1005.1,VALID,0,VALID,93.6826,VALID,0,VALID,24.1336,VALID,2,VALID,0.228516,
2008-06-18, 00:15:05,VALID,1005.1,VALID,0,VALID,93.7361,VALID,0,VALID,24.1123,VALID,2,VALID,0,
2008-06-18, 00:16:04,VALID,1005.08,VALID,0,VALID,93.7666,VALID,0,VALID,24.0929,VALID,2,VALID,0.205078,
2008-06-18, 00:17:04,VALID,1005.06,VALID,0,VALID,93.7589,VALID,0,VALID,24.1142,VALID,2,VALID,0.330859,
2008-06-18, 00:18:04,VALID,1005.05,VALID,0,VALID,93.7818,VALID,0,VALID,24.0929,VALID,2,VALID,0.158203,
2008-06-18, 00:19:04,VALID,1005.04,VALID,0,VALID,93.7971,VALID,0,VALID,24.0734,VALID,2,VALID,0.232422,
2008-06-18, 00:20:04,VALID,1005.05,VALID,0,VALID,93.8123,VALID,0,VALID,24.0539,VALID,2,VALID,0.274219,
2008-06-18, 00:21:04,VALID,1005.08,VALID,0,VALID,93.7971,VALID,0,VALID,24.0539,VALID,2,VALID,0.222656,
2008-06-18, 00:22:04,VALID,1005.08,VALID,0,VALID,93.8123,VALID,0,VALID,24.0345,VALID,2,VALID,0.242188,
2008-06-18, 00:23:04,VALID,1005.04,VALID,0,VALID,93.82,VALID,0,VALID,24.0345,VALID,2,VALID,0.292578,
2008-06-18, 00:24:04,VALID,1005.04,VALID,0,VALID,93.8276,VALID,0,VALID,24.0345,VALID,2,VALID,0.169141,
2008-06-18, 00:25:04,VALID,1005.02,VALID,0,VALID,93.8657,VALID,0,VALID,24.015,VALID,2,VALID,0.154687,
2008-06-18, 00:26:04,VALID,1005.03,VALID,0,VALID,93.8734,VALID,0,VALID,24.0168,VALID,2,VALID,0.0457031,
2008-06-18, 00:27:04,VALID,1005.03,VALID,0,VALID,93.8429,VALID,0,VALID,23.9955,VALID,2,VALID,0,
2008-06-18, 00:28:04,VALID,1005.01,VALID,0,VALID,93.9115,VALID,0,VALID,23.9761,VALID,2,VALID,0,
2008-06-18, 00:29:04,VALID,1005,VALID,0,VALID,93.9268,VALID,0,VALID,23.9779,VALID,2,VALID,0,
2008-06-18, 00:30:04,VALID,1005,VALID,0,VALID,93.9573,VALID,0,VALID,23.9779,VALID,2,VALID,0,
2008-06-18, 00:31:04,VALID,1005,VALID,0,VALID,93.9878,VALID,0,VALID,23.9584,VALID,2,VALID,0,
2008-06-18, 00:32:04,VALID,1005,VALID,0,VALID,94.0031,VALID,0,VALID,23.9584,VALID,2,VALID,0,
2008-06-18, 00:33:04,VALID,1004.99,VALID,0,VALID,94.0259,VALID,0.100563,VALID,23.9195,VALID,2,VALID,0,
2008-06-18, 00:34:04,VALID,1004.97,VALID,0,VALID,94.0641,VALID,0.100563,VALID,23.8982,VALID,2,VALID,0,
2008-06-18, 00:35:04,VALID,1004.98,VALID,0,VALID,94.1022,VALID,0,VALID,23.9,VALID,2,VALID,0,
2008-06-18, 00:36:04,VALID,1004.96,VALID,0,VALID,94.1175,VALID,0,VALID,23.8593,VALID,2,VALID,0,
2008-06-18, 00:37:04,VALID,1004.95,VALID,0,VALID,94.1251,VALID,0,VALID,23.8611,VALID,2,VALID,0,
2008-06-18, 00:38:04,VALID,1004.95,VALID,0,VALID,94.1404,VALID,0,VALID,23.8398,VALID,2,VALID,0,
2008-06-18, 00:39:04,VALID,1004.93,VALID,0,VALID,94.1709,VALID,0,VALID,23.8416,VALID,2,VALID,0,
2008-06-18, 00:40:04,VALID,1004.93,VALID,0,VALID,94.2167,VALID,0,VALID,23.8203,VALID,2,VALID,0,
2008-06-18, 00:41:04,VALID,1004.9,VALID,0,VALID,94.2396,VALID,0,VALID,23.8185,VALID,2,VALID,0,
2008-06-18, 00:42:04,VALID,1004.93,VALID,0,VALID,94.2777,VALID,0,VALID,23.8398,VALID,2,VALID,0,
2008-06-18, 00:43:04,VALID,1004.9,VALID,0,VALID,94.2701,VALID,0,VALID,23.8203,VALID,2,VALID,0,
2008-06-18, 00:44:04,VALID,1004.87,VALID,0,VALID,94.293,VALID,0,VALID,23.8416,VALID,2,VALID,0,
2008-06-18, 00:45:04,VALID,1004.91,VALID,0,VALID,94.3006,VALID,0,VALID,23.8416,VALID,2,VALID,0,
2008-06-18, 00:46:04,VALID,1004.88,VALID,0,VALID,94.3158,VALID,0,VALID,23.8203,VALID,2,VALID,0,
2008-06-18, 00:47:04,VALID,1004.9,VALID,0,VALID,94.293,VALID,0.100563,VALID,23.8203,VALID,2,VALID,0,
2008-06-18, 00:48:04,VALID,1004.86,VALID,0,VALID,94.354,VALID,0,VALID,23.8009,VALID,2,VALID,0,
2008-06-18, 00:49:04,VALID,1004.88,VALID,0,VALID,94.4227,VALID,0,VALID,23.8416,VALID,2,VALID,0,
2008-06-18, 00:50:04,VALID,1004.87,VALID,0,VALID,94.4379,VALID,0,VALID,23.8185,VALID,2,VALID,0,
2008-06-18, 00:51:04,VALID,1004.88,VALID,0,VALID,94.4837,VALID,0,VALID,23.8611,VALID,2,VALID,0.233203,
2008-06-18, 00:52:04,VALID,1004.86,VALID,0,VALID,94.5142,VALID,0,VALID,23.8593,VALID,68,VALID,0.539453,
2008-06-18, 00:53:04,VALID,1004.86,VALID,0,VALID,94.4761,VALID,0.100563,VALID,23.8787,VALID,69,VALID,0.575391,
2008-06-18, 00:54:04,VALID,1004.82,VALID,0,VALID,94.4989,VALID,0.100563,VALID,23.8982,VALID,67,VALID,0.338281,
2008-06-18, 00:55:04,VALID,1004.84,VALID,0,VALID,94.4074,VALID,0,VALID,23.9177,VALID,69,VALID,0.596875,
2008-06-18, 00:56:04,VALID,1004.83,VALID,0,VALID,94.3311,VALID,0,VALID,23.9371,VALID,69,VALID,0.416016,
2008-06-18, 00:57:04,VALID,1004.83,VALID,0,VALID,94.2472,VALID,0.100563,VALID,23.9177,VALID,69,VALID,0.321094,
2008-06-18, 00:58:04,VALID,1004.81,VALID,0,VALID,94.1862,VALID,0,VALID,23.8982,VALID,69,VALID,0.230859,
2008-06-18, 00:59:04,VALID,1004.8,VALID,0,VALID,94.087,VALID,0,VALID,23.8982,VALID,69,VALID,0.343359,
2008-06-18, 01:00:04,VALID,1004.8,VALID,0,VALID,94.0336,VALID,0,VALID,23.8982,VALID,69,VALID,0.117578,
2008-06-18, 01:01:04,VALID,1004.79,VALID,0,VALID,94.0031,VALID,0.100563,VALID,23.8787,VALID,69,VALID,0.0238281,
2008-06-18, 01:02:04,VALID,1004.8,VALID,0,VALID,93.9878,VALID,0,VALID,23.838,VALID,69,VALID,0.120312,
2008-06-18, 01:03:04,VALID,1004.8,VALID,0,VALID,93.9649,VALID,0,VALID,23.8593,VALID,69,VALID,0.00585938,
2008-06-18, 01:04:04,VALID,1004.79,VALID,0,VALID,93.9573,VALID,0,VALID,23.8611,VALID,69,VALID,0.0421875,
2008-06-18, 01:05:04,VALID,1004.8,VALID,0,VALID,93.9497,VALID,0,VALID,23.8203,VALID,69,VALID,0,
2008-06-18, 01:06:04,VALID,1004.8,VALID,0,VALID,94.0412,VALID,0,VALID,23.8203,VALID,69,VALID,0.00078125,
2008-06-18, 01:07:04,VALID,1004.8,VALID,0,VALID,94.0488,VALID,0,VALID,23.8203,VALID,69,VALID,0.164844,
2008-06-18, 01:08:04,VALID,1004.82,VALID,0,VALID,94.0717,VALID,0,VALID,23.8203,VALID,69,VALID,0.184375,
2008-06-18, 01:09:04,VALID,1004.83,VALID,0,VALID,94.0183,VALID,0.100563,VALID,23.8203,VALID,69,VALID,0,
2008-06-18, 01:10:04,VALID,1004.81,VALID,0,VALID,93.9344,VALID,0,VALID,23.8009,VALID,69,VALID,0,
2008-06-18, 01:11:04,VALID,1004.82,VALID,0,VALID,93.8505,VALID,0,VALID,23.7814,VALID,69,VALID,0.223828,
2008-06-18, 01:12:04,VALID,1004.79,VALID,0,VALID,93.7818,VALID,0,VALID,23.7637,VALID,69,VALID,0.221484,
2008-06-18, 01:13:04,VALID,1004.76,VALID,0,VALID,93.8047,VALID,0,VALID,23.723,VALID,69,VALID,0.0886719,
2008-06-18, 01:14:04,VALID,1004.78,VALID,0,VALID,93.9344,VALID,0,VALID,23.7035,VALID,69,VALID,0,
2008-06-18, 01:15:04,VALID,1004.78,VALID,0,VALID,94.0641,VALID,0.100563,VALID,23.7443,VALID,69,VALID,0,
2008-06-18, 01:16:04,VALID,1004.78,VALID,0,VALID,94.1862,VALID,0,VALID,23.7035,VALID,69,VALID,0.297266,
2008-06-18, 01:17:04,VALID,1004.76,VALID,0,VALID,94.3006,VALID,0,VALID,23.7425,VALID,69,VALID,0.176563,
2008-06-18, 01:18:04,VALID,1004.78,VALID,0,VALID,94.3006,VALID,0,VALID,23.7619,VALID,69,VALID,0.198437,
2008-06-18, 01:19:04,VALID,1004.75,VALID,0,VALID,94.3387,VALID,0.100563,VALID,23.7637,VALID,69,VALID,0,
2008-06-18, 01:20:04,VALID,1004.75,VALID,0,VALID,94.3616,VALID,0,VALID,23.7832,VALID,69,VALID,0,
2008-06-18, 01:21:04,VALID,1004.76,VALID,0,VALID,94.3616,VALID,0,VALID,23.7832,VALID,69,VALID,0,
2008-06-18, 01:22:04,VALID,1004.71,VALID,0,VALID,94.3769,VALID,0,VALID,23.7619,VALID,68,VALID,0,
2008-06-18, 01:23:04,VALID,1004.71,VALID,0,VALID,94.3845,VALID,0,VALID,23.7814,VALID,33,VALID,0,
2008-06-18, 01:24:04,VALID,1004.69,VALID,0,VALID,94.3921,VALID,0,VALID,23.8027,VALID,26,VALID,0,
2008-06-18, 01:25:04,VALID,1004.67,VALID,0,VALID,94.3845,VALID,0,VALID,23.7814,VALID,26,VALID,0,
2008-06-18, 01:26:04,VALID,1004.67,VALID,0,VALID,94.3998,VALID,0,VALID,23.7814,VALID,26,VALID,0,
2008-06-18, 01:27:04,VALID,1004.65,VALID,0,VALID,94.4379,VALID,0,VALID,23.7619,VALID,26,VALID,0,
2008-06-18, 01:28:04,VALID,1004.64,VALID,0,VALID,94.4837,VALID,0,VALID,23.7814,VALID,26,VALID,0,
2008-06-18, 01:29:04,VALID,1004.63,VALID,0,VALID,94.5447,VALID,0,VALID,23.8009,VALID,26,VALID,0,
2008-06-18, 01:30:04,VALID,1004.64,VALID,0,VALID,94.5905,VALID,0.100563,VALID,23.8009,VALID,26,VALID,0,
2008-06-18, 01:31:04,VALID,1004.61,VALID,0,VALID,94.6134,VALID,0,VALID,23.8416,VALID,26,VALID,0,
2008-06-18, 01:32:04,VALID,1004.62,VALID,0,VALID,94.6134,VALID,0,VALID,23.8203,VALID,26,VALID,0,
2008-06-18, 01:33:04,VALID,1004.61,VALID,0,VALID,94.5905,VALID,0,VALID,23.8416,VALID,26,VALID,0,
2008-06-18, 01:34:04,VALID,1004.59,VALID,0,VALID,94.6134,VALID,0,VALID,23.8593,VALID,26,VALID,0,
2008-06-18, 01:35:04,VALID,1004.59,VALID,0,VALID,94.6057,VALID,0,VALID,23.8398,VALID,26,VALID,0,
2008-06-18, 01:36:04,VALID,1004.54,VALID,0,VALID,94.6363,VALID,0,VALID,23.8593,VALID,26,VALID,0,
2008-06-18, 01:37:04,VALID,1004.55,VALID,0,VALID,94.6363,VALID,0,VALID,23.9,VALID,26,VALID,0,
2008-06-18, 01:38:04,VALID,1004.45,VALID,0,VALID,94.621,VALID,0.100563,VALID,23.8787,VALID,26,VALID,0,
2008-06-18, 01:39:04,VALID,1004.43,VALID,0,VALID,94.6134,VALID,0,VALID,23.9177,VALID,26,VALID,0,
2008-06-18, 01:40:04,VALID,1004.29,VALID,0,VALID,94.5752,VALID,0,VALID,23.9371,VALID,26,VALID,0,
2008-06-18, 01:41:04,VALID,1004.37,VALID,0,VALID,94.5218,VALID,0,VALID,23.9584,VALID,26,VALID,0,
2008-06-18, 01:42:04,VALID,1004.08,VALID,0,VALID,94.4227,VALID,0,VALID,23.9371,VALID,26,VALID,0.314063,
2008-06-18, 06:53:04,VALID,1005.85,VALID,0,VALID,94.5295,VALID,51.086,VALID,22.9852,VALID,82,VALID,0.233203,
2008-06-18, 06:54:04,VALID,1005.87,VALID,0,VALID,94.5676,VALID,53.1978,VALID,22.9852,VALID,82,VALID,0.178906,
2008-06-18, 06:55:04,VALID,1005.88,VALID,0,VALID,94.7125,VALID,55.0079,VALID,23.0046,VALID,82,VALID,0,
2008-06-18, 06:56:04,VALID,1005.91,VALID,0,VALID,94.7507,VALID,56.7175,VALID,23.0436,VALID,82,VALID,0.136719,
2008-06-18, 06:57:04,VALID,1005.89,VALID,0,VALID,94.7736,VALID,58.1254,VALID,23.0842,VALID,82,VALID,0,
2008-06-18, 06:58:04,VALID,1005.91,VALID,0.5,VALID,94.8041,VALID,59.3321,VALID,23.0825,VALID,82,VALID,0.00195313,
2008-06-18, 06:59:04,VALID,1005.96,VALID,0,VALID,94.7812,VALID,60.2372,VALID,23.0825,VALID,82,VALID,0.255859,
2008-06-18, 07:00:04,VALID,1005.98,VALID,0,VALID,94.888,VALID,61.7456,VALID,23.1002,VALID,83,VALID,0.798437,
2008-06-18, 07:01:04,VALID,1006.01,VALID,0,VALID,94.9414,VALID,60.74,VALID,23.1798,VALID,84,VALID,0.389453,
2008-06-18, 07:02:04,VALID,1006.04,VALID,0,VALID,94.9643,VALID,61.7456,VALID,23.1993,VALID,84,VALID,0.425,
2008-06-18, 07:03:04,VALID,1006.06,VALID,0,VALID,94.9948,VALID,63.4552,VALID,23.2187,VALID,83,VALID,0.671094,
2008-06-18, 07:04:04,VALID,1006.11,VALID,0,VALID,95.0635,VALID,62.8518,VALID,23.2382,VALID,84,VALID,0.583203,
2008-06-18, 07:05:04,VALID,1006.16,VALID,0,VALID,95.033,VALID,59.4327,VALID,23.2771,VALID,86,VALID,0.491016,
2008-06-18, 07:06:04,VALID,1006.18,VALID,0,VALID,95.0711,VALID,58.8293,VALID,23.316,VALID,87,VALID,0.194141,
2008-06-18, 07:07:04,VALID,1006.22,VALID,0,VALID,95.1169,VALID,56.4158,VALID,23.3143,VALID,87,VALID,0.248437,
2008-06-18, 07:08:04,VALID,1006.28,VALID,0,VALID,95.1398,VALID,54.4046,VALID,23.355,VALID,87,VALID,0,
2008-06-18, 07:09:04,VALID,1006.28,VALID,0,VALID,95.1474,VALID,54.2034,VALID,23.3939,VALID,87,VALID,0.301562,
2008-06-18, 07:10:04,VALID,1006.35,VALID,0,VALID,95.1474,VALID,55.5107,VALID,23.4134,VALID,87,VALID,0.0980469,
2008-06-18, 07:11:04,VALID,1006.38,VALID,0,VALID,95.2008,VALID,59.9355,VALID,23.4523,VALID,87,VALID,0,
2008-06-18, 07:12:04,VALID,1006.43,VALID,0,VALID,95.1398,VALID,62.9524,VALID,23.4505,VALID,87,VALID,0,
2008-06-18, 07:13:04,VALID,1006.47,VALID,0,VALID,95.1245,VALID,67.176,VALID,23.5107,VALID,87,VALID,0,
2008-06-18, 07:14:04,VALID,1006.5,VALID,0.5,VALID,95.0253,VALID,70.1929,VALID,23.5107,VALID,87,VALID,0,
2008-06-18, 07:15:04,VALID,1006.5,VALID,0,VALID,95.1016,VALID,73.9138,VALID,23.5107,VALID,87,VALID,0,
2008-06-18, 07:16:04,VALID,1006.51,VALID,0,VALID,95.1627,VALID,77.4335,VALID,23.5496,VALID,87,VALID,0,
2008-06-18, 07:17:04,VALID,1006.52,VALID,0,VALID,95.2313,VALID,77.534,VALID,23.5885,VALID,87,VALID,0,
2008-06-18, 07:18:04,VALID,1006.53,VALID,0,VALID,95.2161,VALID,77.0312,VALID,23.6682,VALID,87,VALID,0,
2008-06-18, 07:19:04,VALID,1006.54,VALID,0,VALID,95.2466,VALID,77.9363,VALID,23.6859,VALID,87,VALID,0,
2008-06-18, 07:20:04,VALID,1006.54,VALID,0,VALID,95.1016,VALID,78.6402,VALID,23.7266,VALID,87,VALID,0,
2008-06-18, 07:21:04,VALID,1006.56,VALID,0,VALID,95.0482,VALID,79.2436,VALID,23.7053,VALID,87,VALID,0,
2008-06-18, 07:22:04,VALID,1006.56,VALID,0,VALID,95.0635,VALID,85.0762,VALID,23.7053,VALID,93,VALID,0.428125,
2008-06-18, 07:23:04,VALID,1006.54,VALID,0,VALID,95.1245,VALID,91.3112,VALID,23.7443,VALID,140,VALID,0.298438,
2008-06-18, 07:24:04,VALID,1006.51,VALID,0,VALID,95.1855,VALID,85.8808,VALID,23.8027,VALID,140,VALID,0.040625,
2008-06-18, 07:25:04,VALID,1006.55,VALID,0,VALID,95.2389,VALID,92.1157,VALID,23.8611,VALID,140,VALID,0.164063,
2008-06-18, 07:26:04,VALID,1006.51,VALID,0,VALID,95.2771,VALID,106.798,VALID,23.9,VALID,142,VALID,0.0203125,
2008-06-18, 07:27:04,VALID,1006.51,VALID,0,VALID,95.2542,VALID,108.809,VALID,23.9389,VALID,144,VALID,0.155469,
2008-06-18, 07:28:04,VALID,1006.51,VALID,0,VALID,95.2008,VALID,104.083,VALID,23.9779,VALID,186,VALID,0.401172,
2008-06-18, 07:29:04,VALID,1006.48,VALID,0,VALID,95.3229,VALID,101.971,VALID,24.0168,VALID,275,VALID,0.759766,
2008-06-18, 07:30:04,VALID,1006.51,VALID,0,VALID,95.3915,VALID,104.887,VALID,24.091,VALID,278,VALID,0.119922,
2008-06-18, 07:31:04,VALID,1006.55,VALID,0,VALID,95.3457,VALID,121.279,VALID,24.1494,VALID,258,VALID,0.233594,
2008-06-18, 07:32:04,VALID,1006.52,VALID,0.5,VALID,95.3229,VALID,126.81,VALID,24.2486,VALID,257,VALID,0.0109375,
2008-06-18, 07:33:04,VALID,1006.56,VALID,0,VALID,95.4068,VALID,131.637,VALID,24.2875,VALID,257,VALID,0.0570313,
2008-06-18, 07:34:04,VALID,1006.55,VALID,0,VALID,95.3915,VALID,136.162,VALID,24.3654,VALID,252,VALID,0.300391,
2008-06-18, 07:35:04,VALID,1006.54,VALID,0,VALID,95.0253,VALID,140.386,VALID,24.3459,VALID,331,VALID,0.642578,
2008-06-18, 07:36:04,VALID,1006.56,VALID,0,VALID,95.1321,VALID,143.202,VALID,24.4062,VALID,259,VALID,0.391797,
2008-06-18, 07:37:04,VALID,1006.52,VALID,0,VALID,95.0482,VALID,144.207,VALID,24.4238,VALID,259,VALID,0.271484,
2008-06-18, 07:38:04,VALID,1006.5,VALID,0,VALID,95.033,VALID,148.129,VALID,24.4433,VALID,246,VALID,0.889453,
2008-06-18, 07:39:04,VALID,1006.48,VALID,0,VALID,94.8651,VALID,150.14,VALID,24.4646,VALID,245,VALID,0.837109,
2008-06-18, 07:40:04,VALID,1006.48,VALID,0,VALID,94.7507,VALID,151.247,VALID,24.4628,VALID,269,VALID,0.612891,
2008-06-18, 07:41:04,VALID,1006.49,VALID,0,VALID,94.7125,VALID,151.046,VALID,24.4841,VALID,217,VALID,0.562109,
2008-06-18, 07:42:04,VALID,1006.44,VALID,0,VALID,94.7049,VALID,150.543,VALID,24.5035,VALID,302,VALID,0.594531,
2008-06-18, 07:43:04,VALID,1006.45,VALID,0,VALID,94.2319,VALID,149.839,VALID,24.4646,VALID,202,VALID,1.09063,
2008-06-18, 07:44:04,VALID,1006.47,VALID,0,VALID,93.5758,VALID,148.531,VALID,24.3849,VALID,225,VALID,0.960938,
2008-06-18, 07:45:04,VALID,1006.49,VALID,0,VALID,93.7284,VALID,149.437,VALID,24.3867,VALID,190,VALID,0.270312,
2008-06-18, 07:46:04,VALID,1006.48,VALID,0,VALID,93.6445,VALID,145.012,VALID,24.4257,VALID,187,VALID,0.277344,
2008-06-18, 07:47:04,VALID,1006.47,VALID,0,VALID,93.2783,VALID,143.101,VALID,24.3867,VALID,288,VALID,0.640234,
2008-06-18, 07:48:04,VALID,1006.47,VALID,0,VALID,93.0266,VALID,140.185,VALID,24.3673,VALID,280,VALID,0.357031,
2008-06-18, 07:49:04,VALID,1006.49,VALID,0,VALID,93.2325,VALID,138.274,VALID,24.3867,VALID,280,VALID,0.355859,
2008-06-18, 07:50:04,VALID,1006.49,VALID,0,VALID,92.7672,VALID,136.363,VALID,24.4062,VALID,256,VALID,0.541016,
2008-06-18, 07:51:04,VALID,1006.52,VALID,0.5,VALID,92.7443,VALID,136.062,VALID,24.3673,VALID,272,VALID,0.511719,
2008-06-18, 07:52:04,VALID,1006.5,VALID,0,VALID,92.9655,VALID,135.458,VALID,24.4062,VALID,279,VALID,0,
2008-06-18, 07:53:04,VALID,1006.51,VALID,0,VALID,92.1187,VALID,135.659,VALID,24.3478,VALID,197,VALID,0.807813,
2008-06-18, 07:54:04,VALID,1006.53,VALID,0,VALID,92.5078,VALID,136.162,VALID,24.3478,VALID,285,VALID,0.55,
2008-06-18, 07:55:04,VALID,1006.53,VALID,0,VALID,92.6222,VALID,137.067,VALID,24.3673,VALID,285,VALID,0.349219,
2008-06-18, 07:56:04,VALID,1006.54,VALID,0,VALID,91.9814,VALID,135.76,VALID,24.3478,VALID,237,VALID,0.422656,
2008-06-18, 07:57:04,VALID,1006.58,VALID,0,VALID,92.0043,VALID,135.458,VALID,24.3478,VALID,237,VALID,0.297266,
2008-06-18, 07:58:04,VALID,1006.6,VALID,0,VALID,91.9967,VALID,134.855,VALID,24.3283,VALID,266,VALID,0.291406,
2008-06-18, 07:59:04,VALID,1006.65,VALID,0,VALID,92.0958,VALID,133.648,VALID,24.3283,VALID,233,VALID,0.482422,
2008-06-18, 08:00:04,VALID,1006.66,VALID,0,VALID,91.7144,VALID,130.732,VALID,24.2894,VALID,230,VALID,0.466016,
2008-06-18, 08:01:04,VALID,1006.66,VALID,0,VALID,91.5771,VALID,125.603,VALID,24.2894,VALID,229,VALID,0.100391,
2008-06-18, 08:02:04,VALID,1006.71,VALID,0,VALID,91.4703,VALID,120.474,VALID,24.2699,VALID,229,VALID,0.167969,
2008-06-18, 08:03:04,VALID,1006.71,VALID,0,VALID,91.2185,VALID,113.133,VALID,24.2699,VALID,229,VALID,0.275391,
2008-06-18, 08:04:04,VALID,1006.74,VALID,0,VALID,91.2033,VALID,107.904,VALID,24.2894,VALID,229,VALID,0.0695312,
2008-06-18, 08:05:04,VALID,1006.75,VALID,0,VALID,91.4703,VALID,104.485,VALID,24.3283,VALID,229,VALID,0,
2008-06-18, 08:06:04,VALID,1006.77,VALID,0,VALID,91.3864,VALID,102.373,VALID,24.3478,VALID,194,VALID,0.260938,
2008-06-18, 08:07:04,VALID,1006.78,VALID,0,VALID,90.2115,VALID,102.775,VALID,24.3478,VALID,150,VALID,0.519922,
2008-06-18, 08:08:04,VALID,1006.74,VALID,0,VALID,88.9909,VALID,104.686,VALID,24.2699,VALID,189,VALID,0.485938,
2008-06-18, 08:09:04,VALID,1006.78,VALID,0,VALID,89.4868,VALID,110.016,VALID,24.3088,VALID,184,VALID,0.220703,
2008-06-18, 08:10:04,VALID,1006.83,VALID,0.5,VALID,89.4486,VALID,118.463,VALID,24.307,VALID,185,VALID,0.491797,
2008-06-18, 08:11:04,VALID,1006.84,VALID,0,VALID,89.6927,VALID,128.117,VALID,24.3088,VALID,185,VALID,0.229297,
2008-06-18, 08:12:04,VALID,1006.83,VALID,0,VALID,90.0971,VALID,135.861,VALID,24.3283,VALID,185,VALID,0.0121094,
2008-06-18, 08:13:04,VALID,1006.84,VALID,0,VALID,90.7532,VALID,142.598,VALID,24.3478,VALID,185,VALID,0.199219,
2008-06-18, 08:14:04,VALID,1006.89,VALID,0,VALID,89.8606,VALID,139.28,VALID,24.4099,VALID,187,VALID,0.401563,
2008-06-18, 08:15:04,VALID,1006.89,VALID,0,VALID,90.1963,VALID,132.944,VALID,24.3691,VALID,187,VALID,0.01875,
2008-06-18, 08:16:04,VALID,1006.87,VALID,0,VALID,90.5853,VALID,139.883,VALID,24.3867,VALID,187,VALID,0,
2008-06-18, 08:17:04,VALID,1006.89,VALID,0,VALID,90.1886,VALID,151.85,VALID,24.3478,VALID,187,VALID,0,
2008-06-18, 08:18:04,VALID,1006.9,VALID,0,VALID,90.5472,VALID,169.147,VALID,24.3867,VALID,187,VALID,0.108203,
2008-06-18, 08:19:04,VALID,1006.93,VALID,0,VALID,91.1041,VALID,182.622,VALID,24.4257,VALID,187,VALID,0,
2008-06-18, 08:20:04,VALID,1006.88,VALID,0,VALID,91.1956,VALID,198.411,VALID,24.4859,VALID,187,VALID,0.0238281,
2008-06-18, 08:21:04,VALID,1006.85,VALID,0,VALID,90.1963,VALID,210.478,VALID,24.4646,VALID,187,VALID,0.158984,
2008-06-18, 08:22:04,VALID,1006.91,VALID,0,VALID,90.7532,VALID,219.529,VALID,24.5035,VALID,187,VALID,0.116797,
2008-06-18, 08:23:04,VALID,1006.9,VALID,0,VALID,90.8905,VALID,223.551,VALID,24.5814,VALID,235,VALID,0.317578,
2008-06-18, 08:24:04,VALID,1006.9,VALID,0,VALID,90.6692,VALID,224.557,VALID,24.6593,VALID,235,VALID,0.104687,
2008-06-18, 08:25:04,VALID,1006.92,VALID,0,VALID,90.7379,VALID,213.696,VALID,24.7586,VALID,237,VALID,0.188281,
2008-06-18, 08:26:04,VALID,1006.89,VALID,0,VALID,90.1963,VALID,181.013,VALID,24.7761,VALID,262,VALID,0.491797,
2008-06-18, 08:27:04,VALID,1006.89,VALID,0,VALID,90.3488,VALID,131.939,VALID,24.7956,VALID,262,VALID,0.0949219,
2008-06-18, 08:28:04,VALID,1006.93,VALID,0,VALID,90.6387,VALID,106.194,VALID,24.8151,VALID,239,VALID,0.387891,
2008-06-18, 08:29:04,VALID,1006.94,VALID,0,VALID,90.5167,VALID,99.3562,VALID,24.7956,VALID,260,VALID,0.245312,
2008-06-18, 08:30:04,VALID,1006.99,VALID,0,VALID,90.3717,VALID,131.436,VALID,24.7761,VALID,230,VALID,0.879297,
2008-06-18, 08:31:04,VALID,1007.03,VALID,0,VALID,90.921,VALID,154.967,VALID,24.778,VALID,263,VALID,0.932031,
2008-06-18, 08:32:04,VALID,1007.08,VALID,0,VALID,90.7074,VALID,167.437,VALID,24.7196,VALID,163,VALID,0.657031,
2008-06-18, 08:33:04,VALID,1007.01,VALID,0.5,VALID,90.2497,VALID,186.444,VALID,24.6807,VALID,213,VALID,1.63594,
2008-06-18, 08:34:04,VALID,1007.04,VALID,0,VALID,88.7697,VALID,207.059,VALID,24.6222,VALID,192,VALID,3.42734,
2008-06-18, 08:35:04,VALID,1007.08,VALID,0,VALID,89.2274,VALID,228.58,VALID,24.6009,VALID,214,VALID,1.43672,
2008-06-18, 08:36:04,VALID,1007.08,VALID,0,VALID,88.9222,VALID,263.173,VALID,24.562,VALID,177,VALID,1.67266,
2008-06-18, 08:37:04,VALID,1007.05,VALID,0,VALID,88.5637,VALID,294.851,VALID,24.5425,VALID,217,VALID,2.09414,
2008-06-18, 08:38:04,VALID,1007.05,VALID,0,VALID,88.7162,VALID,319.79,VALID,24.5638,VALID,239,VALID,1.0668,
2008-06-18, 08:39:04,VALID,1007.06,VALID,0,VALID,87.5872,VALID,339.903,VALID,24.523,VALID,225,VALID,1.64414,
2008-06-18, 08:40:04,VALID,1007.06,VALID,0,VALID,86.6031,VALID,343.121,VALID,24.5425,VALID,219,VALID,1.52109,
2008-06-18, 08:41:04,VALID,1007.05,VALID,0,VALID,86.8395,VALID,348.048,VALID,24.5833,VALID,225,VALID,1.72383,
2008-06-18, 08:42:04,VALID,1007.04,VALID,0,VALID,87.9381,VALID,348.853,VALID,24.6009,VALID,219,VALID,1.41211,
2008-06-18, 08:43:04,VALID,1007.04,VALID,0,VALID,89.3418,VALID,342.015,VALID,24.6788,VALID,168,VALID,1.55781,
2008-06-18, 08:44:04,VALID,1007.04,VALID,0,VALID,88.2814,VALID,338.495,VALID,24.7391,VALID,199,VALID,0.974609,
2008-06-18, 08:45:04,VALID,1007,VALID,0,VALID,87.9152,VALID,329.645,VALID,24.7586,VALID,164,VALID,1.35039,
2008-06-18, 08:46:04,VALID,1007.02,VALID,0,VALID,88.4645,VALID,334.975,VALID,24.817,VALID,182,VALID,1.71406,
2008-06-18, 08:47:04,VALID,1007.05,VALID,0,VALID,86.42,VALID,338.294,VALID,24.817,VALID,167,VALID,1.7457,
2008-06-18, 08:48:04,VALID,1007.04,VALID,0,VALID,86.008,VALID,341.411,VALID,24.8364,VALID,178,VALID,2.02734,
2008-06-18, 08:49:04,VALID,1007.01,VALID,0,VALID,84.8103,VALID,343.121,VALID,24.817,VALID,197,VALID,2.52305,
2008-06-18, 08:50:04,VALID,1007,VALID,0,VALID,84.0397,VALID,344.931,VALID,24.817,VALID,214,VALID,1.74453,
2008-06-18, 08:51:04,VALID,1006.96,VALID,0,VALID,84.0931,VALID,351.669,VALID,24.8383,VALID,196,VALID,1.17227,
2008-06-18, 08:52:04,VALID,1006.97,VALID,0,VALID,84.7416,VALID,354.082,VALID,24.8346,VALID,201,VALID,1.08594,
2008-06-18, 08:53:04,VALID,1006.94,VALID,0,VALID,84.7111,VALID,355.691,VALID,24.8151,VALID,201,VALID,2.02344,